TimeHST,TemperatureF,Dew PointF,Humidity,Sea Level PressureIn,VisibilityMPH,Wind Direction,Wind SpeedMPH,Gust SpeedMPH,PrecipitationIn,Events,Conditions,WindDirDegrees,DateUTC
12:53 AM,66.0,57.9,75,29.86,10.0,Calm,Calm,-,N/A,,Partly Cloudy,0,2014-01-25 10:53:00
1:53 AM,64.0,57.0,78,29.84,10.0,Calm,Calm,-,N/A,,Partly Cloudy,0,2014-01-25 11:53:00
2:53 AM,63.0,57.0,81,29.82,10.0,NNE,3.5,-,N/A,,Partly Cloudy,20,2014-01-25 12:53:00
3:53 AM,64.0,57.0,78,29.81,10.0,Calm,Calm,-,N/A,,Partly Cloudy,0,2014-01-25 13:53:00
4:53 AM,64.9,57.9,78,29.81,10.0,Calm,Calm,-,N/A,,Mostly Cloudy,0,2014-01-25 14:53:00
5:53 AM,66.9,59.0,76,29.81,10.0,Calm,Calm,-,N/A,,Mostly Cloudy,0,2014-01-25 15:53:00
6:53 AM,70.0,57.9,65,29.82,10.0,West,4.6,-,N/A,,Mostly Cloudy,270,2014-01-25 16:53:00
7:53 AM,73.0,55.9,55,29.83,10.0,SW,10.4,-,N/A,,Mostly Cloudy,230,2014-01-25 17:53:00
8:53 AM,73.9,55.0,52,29.84,10.0,SW,10.4,-,N/A,,Mostly Cloudy,230,2014-01-25 18:53:00
9:53 AM,75.9,57.0,52,29.86,10.0,SW,15.0,-,N/A,,Mostly Cloudy,230,2014-01-25 19:53:00
10:53 AM,78.1,57.0,48,29.86,10.0,WSW,17.3,23.0,N/A,,Mostly Cloudy,240,2014-01-25 20:53:00
11:53 AM,77.0,57.0,50,29.84,10.0,WSW,15.0,-,N/A,,Mostly Cloudy,240,2014-01-25 21:53:00
12:53 PM,79.0,57.0,47,29.81,10.0,WSW,21.9,27.6,N/A,,Mostly Cloudy,240,2014-01-25 22:53:00
1:53 PM,78.1,57.0,48,29.79,10.0,WSW,16.1,-,N/A,,Mostly Cloudy,240,2014-01-25 23:53:00
2:53 PM,78.1,57.0,48,29.78,10.0,SW,16.1,-,N/A,,Mostly Cloudy,230,2014-01-26 00:53:00
3:53 PM,78.1,57.9,50,29.78,10.0,SW,17.3,-,N/A,,Mostly Cloudy,230,2014-01-26 01:53:00
4:53 PM,75.9,57.9,54,29.80,10.0,SW,13.8,-,N/A,,Mostly Cloudy,230,2014-01-26 02:53:00
5:53 PM,75.0,57.9,55,29.81,10.0,WSW,13.8,20.7,N/A,,Mostly Cloudy,240,2014-01-26 03:53:00
6:53 PM,75.0,60.1,60,29.82,10.0,SW,13.8,-,N/A,,Mostly Cloudy,230,2014-01-26 04:53:00
7:53 PM,75.0,61.0,62,29.84,10.0,WSW,12.7,-,N/A,,Mostly Cloudy,250,2014-01-26 05:53:00
8:53 PM,75.0,61.0,62,29.85,10.0,SW,11.5,-,N/A,,Mostly Cloudy,230,2014-01-26 06:53:00
9:53 PM,75.9,61.0,60,29.86,10.0,West,13.8,-,N/A,,Mostly Cloudy,260,2014-01-26 07:53:00
10:53 PM,75.9,62.1,62,29.87,10.0,West,10.4,-,N/A,,Mostly Cloudy,260,2014-01-26 08:53:00
11:53 PM,75.0,62.1,64,29.87,10.0,West,8.1,-,N/A,,Mostly Cloudy,270,2014-01-26 09:53:00